Location: Unspecified
(0.0000°N, 0.0000°E)
Time: 12:41:13
(UTC+00:00)

Envisat - Pass Details

Date: 04 October 2022
Orbit: 763 x 765 km, 98.2° (Epoch: 08 December)

Event Time Altitude Azimuth Distance (km) Brightness Sun altitude
Rises 03:33:22 0° 22° (NNE) 3,215 6.4 -33.8°
Reaches altitude 10° 03:35:44 10° 28° (NNE) 2,292 5.7 -33.2°
Maximum altitude 03:40:36 49° 102° (ESE) 982 3.8 -32.0°
Enters shadow 03:40:36 49° 102° (ESE) 982 3.8 -32.0°
Exits shadow 03:43:34 22° 167° (SSE) 1,607 4.8 -31.2°
Drops below altitude 10° 03:45:28 10° 176° (S) 2,300 5.5 -30.7°
Sets 03:47:50 0° 182° (S) 3,227 6.3 -30.2°
